TimeMST,TemperatureF,Dew PointF,Humidity,Sea Level PressureIn,VisibilityMPH,Wind Direction,Wind SpeedMPH,Gust SpeedMPH,PrecipitationIn,Events,Conditions,WindDirDegrees,DateUTC
12:53 AM,44.1,15.1,31,29.93,10.0,WSW,16.1,-,N/A,,Clear,240,2013-12-18 07:53:00
1:53 AM,43.0,15.1,32,29.91,10.0,SW,12.7,-,N/A,,Clear,220,2013-12-18 08:53:00
2:53 AM,48.0,14.0,26,29.89,10.0,SW,13.8,-,N/A,,Clear,230,2013-12-18 09:53:00
3:53 AM,46.9,12.9,25,29.89,10.0,WSW,11.5,-,N/A,,Clear,240,2013-12-18 10:53:00
4:53 AM,45.0,14.0,29,29.90,10.0,WSW,9.2,-,N/A,,Clear,250,2013-12-18 11:53:00
5:53 AM,46.0,14.0,28,29.87,10.0,SW,11.5,-,N/A,,Clear,220,2013-12-18 12:53:00
6:53 AM,46.0,15.1,29,29.86,10.0,SW,16.1,-,N/A,,Clear,230,2013-12-18 13:53:00
7:53 AM,46.0,15.1,29,29.87,10.0,WSW,13.8,-,N/A,,Clear,240,2013-12-18 14:53:00
8:53 AM,46.9,16.0,29,29.87,10.0,WSW,10.4,-,N/A,,Clear,240,2013-12-18 15:53:00
9:53 AM,48.0,16.0,28,29.86,10.0,WSW,8.1,-,N/A,,Clear,240,2013-12-18 16:53:00
10:53 AM,53.1,15.1,22,29.83,10.0,West,9.2,-,N/A,,Clear,260,2013-12-18 17:53:00
11:53 AM,59.0,14.0,17,29.77,10.0,West,12.7,-,N/A,,Clear,260,2013-12-18 18:53:00
12:53 PM,59.0,12.9,16,29.73,10.0,West,9.2,-,N/A,,Clear,280,2013-12-18 19:53:00
1:53 PM,60.1,14.0,16,29.70,10.0,West,6.9,-,N/A,,Clear,260,2013-12-18 20:53:00
2:53 PM,60.1,14.0,16,29.69,10.0,Calm,Calm,-,N/A,,Clear,0,2013-12-18 21:53:00
3:53 PM,54.0,14.0,21,29.70,10.0,WSW,3.5,-,N/A,,Clear,240,2013-12-18 22:53:00
4:53 PM,48.0,12.9,24,29.73,10.0,Calm,Calm,-,N/A,,Clear,0,2013-12-18 23:53:00
5:53 PM,46.0,12.9,26,29.74,10.0,SSW,5.8,-,N/A,,Clear,210,2013-12-19 00:53:00
6:53 PM,43.0,12.0,28,29.75,10.0,SSW,9.2,-,N/A,,Clear,200,2013-12-19 01:53:00
7:53 PM,51.1,12.9,22,29.72,10.0,SE,3.5,-,N/A,,Clear,140,2013-12-19 02:53:00
8:53 PM,54.0,9.0,17,29.69,10.0,East,3.5,-,N/A,,Clear,90,2013-12-19 03:53:00
9:53 PM,51.1,10.0,19,29.68,10.0,SSE,3.5,-,N/A,,Clear,150,2013-12-19 04:53:00
10:53 PM,43.0,14.0,31,29.69,10.0,North,4.6,-,N/A,,Clear,350,2013-12-19 05:53:00
11:53 PM,39.9,17.1,40,29.66,10.0,ENE,9.2,-,N/A,,Clear,70,2013-12-19 06:53:00